Location: Austin
(30.3000°N, 97.7500°W)
Time: 02:21:49
(UTC-05:00)

Cosmos 1500 - Pass Details

Date: 15 May 2024
Orbit: 442 x 454 km, 82.5° (Epoch: 29 May)

Event Time Altitude Azimuth Distance (km) Brightness Sun altitude
Rises 21:00:17 0° 356° (N) 2,467 7.1 -9.0°
Reaches altitude 10° 21:02:22 10° 358° (N) 1,588 6.1 -9.3°
Maximum altitude 21:05:49 74° 83° (E) 471 2.8 -10.0°
Drops below altitude 10° 21:09:14 10° 170° (S) 1,569 5.3 -10.6°
Enters shadow 21:10:08 - 171° (S) 1,942 5.7 -10.8°
